Temp
70 70 68 68 57 54 54 60 64 64 63 65 69 67 64 62 59 55 70 74 72 72 73 74 74 75 75 75 75 75 75 76 76 76 76 75 75 76 75 75 75 76 76 76 76 75 75 73 73
71 77 69 62 54 48 50 57 60 63 67 69 70 66 64 58 68 67 67 74 74 73 74 73 72 74 75 74 74 75 75 75 75 75 75 75 75 75 75 75 75 76 76 76 75 75 74 73 73
75 78 64 58 57 54 52 59 60 63 68 67 64 68 65 62 68 68 74 75 74 73 74 73 72 74 74 74 74 74 75 75 75 75 75 75 75 74 74 75 74 74 75 75 75 74 73 73 72
73 68 65 57 53 65 61 60 65 63 66 69 65 59 67 73 71 74 77 76 74 73 73 70 72 74 74 74 74 74 74 74 75 75 75 74 74 74 73 74 74 74 74 74 74 73 72 72 71
70 62 56 51 57 65 62 65 66 64 63 64 66 57 61 72 77 77 76 76 70 70 71 72 72 73 73 74 74 74 74 74 74 74 74 74 73 73 73 73 73 73 73 73 73 72 71 71 70
62 61 53 48 53 62 63 66 66 64 64 64 62 61 61 75 74 74 76 73 72 70 71 71 68 70 72 73 73 73 73 74 74 74 73 73 73 73 73 73 73 73 72 72 72 71 71 70 70
58 54 53 51 55 59 64 68 64 63 64 63 66 58 65 67 72 74 75 73 72 72 70 68 69 68 68 69 70 72 73 73 73 73 72 72 71 72 72 71 72 72 72 72 71 71 70 70 70
63 57 54 51 55 58 66 68 69 67 63 71 70 57 59 69 73 74 78 73 72 70 70 67 67 67 67 67 66 68 69 70 71 70 69 67 68 69 69 68 70 72 72 72 71 70 70 70 70
64 52 50 54 56 60 66 65 66 67 68 67 66 67 69 74 74 73 73 70 72 71 70 68 67 67 67 67 66 64 66 67 66 66 65 63 66 68 68 66 67 70 70 70 70 70 69 68 67
58 51 56 60 59 60 65 65 66 65 63 61 64 70 72 73 71 68 69 68 70 67 68 70 69 68 69 73 66 66 67 66 66 66 66 67 67 68 71 66 65 67 67 69 69 69 68 65 66
58 54 60 60 62 64 65 64 66 63 57 62 62 66 69 69 68 67 67 67 68 69 73 74 74 74 72 73 68 65 66 66 67 69 68 68 70 68 68 66 66 66 62 64 66 67 67 67 67
54 63 62 62 63 64 65 67 65 63 64 69 69 69 67 67 66 67 67 67 67 68 70 74 75 74 74 72 66 66 66 65 65 66 67 65 67 69 70 65 67 64 66 66 66 66 67 67 69
56 58 63 64 62 64 67 64 64 62 64 71 70 70 67 66 67 68 69 69 69 68 70 70 70 69 70 68 67 66 66 66 66 66 67 67 65 64 65 65 67 67 67 67 65 65 67 65 63
55 56 60 64 62 63 64 61 65 62 66 68 68 66 66 67 67 67 68 68 69 70 69 70 70 70 70 68 68 67 67 67 67 66 67 68 66 64 64 64 64 64 66 65 66 66 67 64 63
57 54 61 61 62 59 62 57 58 64 66 66 65 66 66 67 68 68 69 68 70 70 70 70 70 70 70 69 69 68 68 68 67 67 68 68 68 66 65 63 63 63 64 64 63 63 62 61 62
51 51 49 58 60 60 59 51 59 64 64 62 63 62 66 67 68 69 70 70 70 70 69 70 74 70 69 68 68 69 68 67 67 67 67 68 68 68 66 64 63 64 64 64 64 62 61 60 60
46 42 48 52 58 55 55 52 59 63 62 61 61 62 64 65 67 68 70 70 69 70 70 69 70 69 69 68 68 68 69 67 67 67 67 68 68 68 66 65 64 65 64 63 64 61 61 60 60
42 40 46 47 50 53 54 52 56 59 61 60 60 61 63 65 67 69 69 70 70 69 70 70 70 69 69 68 67 66 65 66 66 66 66 67 67 67 65 63 64 64 63 62 62 62 61 61 60
48 45 43 47 51 50 48 50 55 60 56 57 58 60 62 64 69 70 70 69 68 68 68 68 67 67 66 63 63 63 63 63 63 64 66 65 65 65 63 61 62 63 62 62 63 61 60 60 59
46 44 42 47 48 49 47 48 51 55 57 59 60 60 62 62 65 67 66 66 67 68 67 67 67 66 65 63 63 63 62 63 63 64 64 63 62 62 62 61 61 62 61 61 61 61 62 59 58
42 44 42 43 44 47 46 46 51 57 59 59 60 61 61 63 63 62 62 62 63 63 63 65 66 66 65 65 63 62 61 60 58 58 58 59 60 60 60 60 59 60 60 60 60 62 62 59 57
39 47 45 43 42 36 44 34 46 54 56 57 59 61 62 62 60 59 59 59 58 57 59 61 62 63 64 62 61 60 59 57 57 57 57 57 57 57 58 58 58 59 59 60 59 60 58 57 55
42 48 43 44 40 39 37 33 40 50 51 54 58 59 57 58 60 60 60 59 57 56 54 54 56 57 59 60 59 57 56 55 56 55 55 53 53 55 55 56 56 56 56 57 57 58 56 56 55
50 44 42 41 39 30 38 38 38 47 51 54 55 56 57 58 58 59 58 57 56 54 52 52 54 55 56 56 57 56 55 55 53 52 51 51 51 51 52 54 53 54 54 54 54 56 55 54 54
46 39 29 28 28 28 39 37 43 51 54 55 53 54 56 56 56 56 55 54 55 54 52 53 52 53 53 54 55 55 54 54 53 53 51 50 50 49 50 50 50 51 52 53 52 52 53 52 50
41 39 30 23 25 29 36 32 43 52 55 55 55 56 56 54 55 55 55 53 52 52 52 51 51 51 52 52 53 53 53 52 52 53 51 51 50 50 49 49 49 50 51 50 50 50 50 48 47
41 35 44 32 25 27 33 40 48 51 51 51 52 53 52 54 54 53 52 52 52 51 51 51 50 50 50 50 50 50 50 50 50 51 51 50 50 51 49 48 48 48 48 48 48 48 45 45 44
43 46 35 29 18 20 30 32 37 44 46 48 48 49 51 52 53 53 53 54 53 52 51 51 50 50 49 49 48 49 49 49 49 49 49 49 49 49 47 46 46 46 46 45 45 43 43 42 41
38 36 38 37 30 22 24 30 43 43 46 46 48 50 51 52 52 53 54 53 52 52 51 50 49 49 49 49 48 47 47 48 48 47 48 48 47 47 46 45 45 44 44 43 42 42 41 40 40
45 42 42 31 28 30 31 31 46 45 47 48 49 50 51 53 52 51 50 50 50 50 50 49 49 48 48 48 47 47 47 46 46 46 46 46 46 45 45 44 44 43 43 42 41 41 41 39 38
MSLP
1014.08 1014.25 1014.55 1014.58 1015.57 1015.71 1014.77 1013.74 1012.89 1013.15 1013.36 1013.73 1013.50 1014.16 1015.64 1016.40 1017.10 1018.20 1018.31 1018.69 1019.32 1019.98 1020.43 1020.78 1021.05 1021.23 1021.51 1021.73 1021.88 1021.98 1022.16 1022.35 1022.48 1022.56 1022.65 1022.75 1022.79 1022.82 1022.85 1022.87 1022.84 1022.83 1022.87 1023.06 1023.14 1023.37 1023.40 1023.63 1023.63
1014.01 1014.34 1014.70 1014.84 1015.45 1015.44 1014.53 1013.78 1013.58 1013.29 1013.73 1013.76 1014.07 1015.08 1015.71 1017.13 1017.15 1017.91 1018.60 1018.93 1019.32 1019.97 1020.45 1020.86 1021.17 1021.37 1021.62 1021.85 1022.06 1022.19 1022.32 1022.51 1022.67 1022.76 1022.84 1022.96 1023.06 1023.04 1023.09 1023.15 1023.22 1023.21 1023.28 1023.36 1023.45 1023.61 1023.70 1023.81 1023.87
1014.02 1014.19 1014.91 1014.96 1015.00 1014.55 1014.12 1013.89 1013.89 1013.81 1013.54 1014.02 1014.95 1015.40 1016.19 1017.35 1017.47 1017.73 1018.34 1018.79 1019.38 1020.02 1020.49 1020.93 1021.27 1021.51 1021.71 1021.94 1022.13 1022.37 1022.56 1022.74 1022.91 1023.01 1023.06 1023.16 1023.26 1023.37 1023.34 1023.39 1023.45 1023.57 1023.61 1023.59 1023.75 1023.79 1023.92 1024.03 1024.07
1014.16 1014.54 1015.00 1014.82 1014.69 1013.62 1013.31 1013.82 1013.51 1013.99 1014.16 1014.32 1015.22 1016.47 1016.75 1016.89 1017.27 1017.56 1018.29 1018.71 1019.42 1020.01 1020.47 1020.98 1021.30 1021.61 1021.83 1022.04 1022.24 1022.47 1022.71 1022.90 1023.06 1023.19 1023.33 1023.41 1023.51 1023.63 1023.65 1023.62 1023.71 1023.80 1023.86 1023.94 1024.00 1023.97 1024.14 1024.20 1024.30
1014.49 1015.07 1015.16 1014.77 1014.12 1013.44 1013.43 1013.31 1013.27 1014.10 1014.37 1014.68 1015.18 1016.92 1017.30 1017.41 1017.19 1017.70 1018.42 1018.75 1019.65 1020.35 1020.71 1021.05 1021.33 1021.66 1021.96 1022.15 1022.30 1022.52 1022.80 1023.04 1023.20 1023.37 1023.53 1023.62 1023.74 1023.82 1023.86 1023.91 1024.03 1024.11 1024.18 1024.15 1024.24 1024.26 1024.33 1024.40 1024.41
1014.99 1015.24 1015.35 1014.73 1014.22 1013.58 1013.33 1013.12 1013.38 1014.05 1014.53 1015.28 1015.98 1016.92 1017.78 1017.60 1017.57 1017.94 1018.40 1019.16 1019.76 1020.41 1020.88 1021.27 1021.48 1021.70 1022.02 1022.19 1022.51 1022.60 1022.79 1023.07 1023.25 1023.42 1023.61 1023.78 1023.87 1023.95 1024.02 1024.08 1024.19 1024.28 1024.31 1024.35 1024.36 1024.40 1024.45 1024.49 1024.49
1015.44 1015.88 1015.33 1014.43 1014.28 1013.54 1013.21 1012.76 1013.42 1014.03 1014.55 1015.06 1015.61 1017.12 1018.06 1018.04 1017.89 1018.04 1018.60 1019.20 1019.86 1020.41 1021.05 1021.53 1021.82 1021.88 1022.02 1022.30 1022.58 1022.75 1022.80 1022.96 1023.19 1023.30 1023.52 1023.75 1023.95 1024.06 1024.10 1024.19 1024.26 1024.33 1024.39 1024.43 1024.47 1024.49 1024.49 1024.48 1024.54
1015.55 1015.86 1015.29 1014.46 1014.17 1013.59 1013.02 1012.83 1013.02 1013.71 1014.33 1014.65 1015.37 1016.69 1017.84 1017.82 1017.92 1018.17 1018.80 1019.64 1020.18 1020.67 1021.12 1021.71 1021.96 1022.26 1022.21 1022.35 1022.60 1022.91 1023.05 1023.15 1023.30 1023.50 1023.67 1023.84 1023.91 1023.97 1024.10 1024.21 1024.26 1024.32 1024.40 1024.47 1024.53 1024.54 1024.56 1024.53 1024.53
1015.62 1015.87 1015.31 1014.34 1013.95 1013.55 1013.04 1012.87 1013.30 1013.66 1014.07 1014.96 1015.31 1015.70 1016.19 1017.35 1017.91 1018.39 1018.99 1019.82 1020.33 1020.77 1021.18 1021.59 1022.01 1022.19 1022.48 1022.49 1022.64 1022.92 1023.13 1023.30 1023.43 1023.55 1023.70 1023.85 1023.91 1023.92 1023.96 1024.05 1024.15 1024.25 1024.35 1024.41 1024.44 1024.45 1024.43 1024.48 1024.45
1015.84 1015.70 1014.95 1014.48 1013.91 1013.51 1012.90 1012.80 1013.20 1014.14 1014.64 1015.57 1015.79 1015.92 1016.61 1017.34 1018.09 1018.56 1019.05 1019.71 1020.17 1020.57 1021.05 1021.31 1021.69 1021.99 1022.27 1022.36 1022.62 1022.83 1023.02 1023.19 1023.33 1023.43 1023.49 1023.50 1023.66 1023.67 1023.70 1023.93 1024.05 1024.14 1024.26 1024.30 1024.31 1024.29 1024.25 1024.28 1024.19
1015.76 1015.43 1014.83 1014.33 1014.03 1013.87 1013.38 1013.31 1013.24 1014.22 1015.16 1015.35 1015.97 1016.63 1017.07 1017.75 1018.30 1018.70 1019.06 1019.57 1019.96 1020.31 1020.59 1020.76 1020.98 1021.38 1021.77 1021.97 1022.50 1022.67 1022.81 1022.89 1023.01 1023.12 1023.24 1023.29 1023.29 1023.47 1023.60 1023.80 1023.94 1024.04 1024.15 1024.21 1024.21 1024.11 1024.09 1024.08 1024.03
1016.32 1015.33 1015.00 1014.51 1014.26 1013.84 1013.59 1013.43 1013.69 1014.17 1014.33 1014.66 1015.59 1016.31 1017.08 1017.67 1018.30 1018.72 1019.08 1019.45 1019.85 1020.16 1020.27 1020.35 1020.48 1020.99 1021.35 1021.73 1022.31 1022.37 1022.50 1022.66 1022.72 1022.80 1022.95 1023.19 1023.13 1023.11 1023.20 1023.54 1023.56 1023.78 1023.79 1023.85 1023.85 1023.89 1023.84 1023.80 1023.56
1017.01 1016.46 1015.50 1014.78 1014.43 1014.16 1013.88 1013.63 1014.02 1014.39 1014.18 1014.65 1015.78 1016.61 1017.12 1017.76 1018.28 1018.57 1018.77 1019.20 1019.51 1020.07 1020.11 1020.11 1020.31 1020.73 1021.03 1021.43 1021.82 1022.03 1022.21 1022.35 1022.39 1022.43 1022.62 1022.81 1023.03 1023.18 1023.02 1022.97 1023.06 1023.28 1023.39 1023.45 1023.47 1023.42 1023.32 1023.41 1023.41
1017.83 1017.20 1016.15 1015.08 1014.60 1014.32 1014.10 1014.16 1014.04 1014.88 1014.56 1015.24 1016.11 1016.76 1017.15 1017.59 1018.03 1018.35 1018.69 1018.91 1019.15 1019.56 1019.96 1020.20 1020.27 1020.37 1020.85 1021.18 1021.35 1021.56 1021.79 1021.87 1022.00 1022.21 1022.22 1022.29 1022.52 1022.78 1022.84 1022.84 1022.83 1022.70 1022.67 1022.76 1022.85 1022.83 1022.77 1022.85 1022.94
1018.49 1017.76 1016.29 1015.49 1014.59 1014.86 1014.66 1014.87 1014.79 1014.89 1015.09 1015.59 1016.32 1016.80 1017.29 1017.48 1017.81 1017.94 1018.12 1018.54 1018.61 1018.81 1019.26 1019.54 1019.87 1020.20 1020.33 1020.81 1021.04 1021.20 1021.37 1021.57 1021.75 1021.76 1021.83 1021.91 1022.08 1022.25 1022.39 1022.61 1022.67 1022.51 1022.37 1022.43 1022.59 1022.67 1022.73 1022.83 1022.85
1018.74 1017.95 1016.98 1016.28 1015.67 1015.27 1015.24 1015.36 1015.31 1015.16 1015.24 1015.96 1016.48 1016.83 1017.10 1017.37 1017.43 1017.48 1017.65 1017.95 1018.33 1018.60 1019.05 1019.19 1019.44 1019.61 1020.08 1020.36 1020.70 1020.86 1021.05 1021.13 1021.23 1021.29 1021.34 1021.46 1021.58 1021.76 1021.92 1022.13 1022.21 1022.07 1022.13 1022.23 1022.24 1022.39 1022.66 1022.73 1022.83
1019.31 1018.59 1017.58 1016.90 1016.75 1016.56 1016.06 1015.89 1015.62 1015.52 1015.55 1016.03 1016.41 1016.69 1016.83 1017.17 1017.26 1017.11 1017.18 1017.50 1017.80 1018.17 1018.48 1018.83 1019.25 1019.52 1019.79 1019.92 1020.21 1020.39 1020.50 1020.82 1020.85 1020.97 1021.14 1021.17 1021.15 1021.25 1021.51 1021.63 1021.61 1021.71 1021.88 1021.91 1021.91 1022.05 1022.33 1022.54 1022.54
1018.90 1019.19 1018.31 1017.87 1018.40 1017.58 1017.02 1016.65 1016.29 1015.83 1015.78 1016.02 1016.21 1016.49 1016.65 1016.74 1016.91 1016.78 1016.82 1017.14 1017.40 1017.86 1017.91 1018.38 1018.84 1019.01 1019.30 1019.45 1019.84 1020.21 1020.42 1020.33 1020.45 1020.55 1020.74 1020.85 1020.89 1020.90 1021.11 1021.26 1021.28 1021.28 1021.45 1021.65 1021.80 1021.93 1021.91 1021.98 1022.10
1018.67 1018.98 1019.13 1019.31 1019.57 1019.18 1018.39 1017.90 1017.44 1016.55 1016.06 1015.95 1016.11 1016.33 1016.48 1016.42 1016.28 1016.45 1016.73 1016.84 1017.31 1017.55 1017.86 1018.29 1018.65 1018.86 1019.21 1019.73 1020.02 1020.27 1020.58 1020.56 1020.59 1020.40 1020.26 1020.48 1020.64 1020.64 1020.76 1020.95 1020.95 1020.91 1021.15 1021.06 1021.26 1021.43 1021.82 1021.86 1021.85
1019.19 1019.54 1020.16 1020.30 1020.24 1019.56 1019.25 1018.54 1018.01 1017.07 1016.35 1015.84 1015.88 1016.11 1016.23 1016.42 1016.52 1016.52 1016.89 1016.89 1017.13 1017.46 1018.00 1018.28 1018.55 1018.94 1019.20 1019.63 1019.78 1019.95 1020.12 1020.32 1020.20 1020.07 1019.98 1020.02 1020.20 1020.32 1020.56 1020.67 1020.64 1020.44 1020.53 1020.57 1020.67 1020.93 1021.19 1021.26 1021.56
1019.42 1019.61 1020.39 1020.75 1021.17 1021.21 1020.65 1019.69 1018.10 1016.86 1016.36 1015.94 1015.70 1016.00 1016.09 1016.65 1016.75 1016.91 1017.21 1017.51 1017.62 1017.90 1018.11 1018.32 1018.57 1018.97 1019.07 1019.51 1019.70 1019.87 1019.99 1020.14 1020.35 1020.32 1020.16 1020.07 1020.04 1020.14 1020.31 1020.35 1020.33 1020.11 1019.94 1020.03 1020.06 1020.14 1020.34 1020.92 1021.05
1019.65 1019.93 1020.69 1021.05 1021.68 1022.27 1021.99 1020.79 1018.61 1017.25 1016.30 1016.07 1016.11 1016.30 1016.60 1017.26 1017.63 1018.04 1018.13 1018.36 1018.74 1018.95 1019.04 1018.88 1019.02 1019.17 1019.35 1019.54 1019.67 1019.83 1020.02 1020.27 1020.21 1020.29 1020.16 1020.04 1020.03 1020.12 1020.20 1020.14 1020.04 1019.81 1019.59 1019.58 1019.55 1019.68 1019.85 1020.27 1020.79
1019.75 1020.23 1021.17 1021.89 1022.42 1022.62 1022.67 1021.91 1019.34 1017.49 1017.04 1016.47 1016.47 1016.73 1017.60 1018.23 1018.42 1018.61 1018.92 1019.28 1019.44 1019.49 1019.91 1019.60 1019.71 1019.74 1019.73 1019.66 1019.69 1019.90 1020.01 1019.96 1019.87 1020.13 1020.18 1020.21 1020.15 1019.99 1019.92 1019.90 1019.82 1019.67 1019.45 1019.34 1019.19 1019.43 1019.74 1019.88 1020.14
1019.92 1020.87 1021.92 1022.94 1023.11 1023.14 1021.90 1021.48 1019.66 1018.03 1017.40 1016.86 1017.12 1017.38 1018.32 1018.90 1019.00 1019.25 1019.51 1019.76 1019.96 1020.22 1020.23 1020.21 1020.20 1020.03 1019.87 1019.94 1019.88 1019.86 1019.90 1019.90 1020.07 1020.25 1020.35 1020.26 1020.21 1020.10 1019.87 1019.73 1019.66 1019.43 1019.17 1019.13 1019.15 1019.15 1019.71 1019.80 1019.86
1020.06 1020.60 1022.54 1023.74 1023.67 1022.68 1021.40 1021.21 1019.26 1017.89 1017.43 1017.21 1017.78 1018.11 1018.57 1019.41 1019.68 1019.94 1020.09 1020.13 1020.46 1020.48 1020.51 1020.49 1020.44 1020.41 1020.29 1020.12 1019.80 1019.68 1019.74 1019.80 1019.89 1020.08 1020.22 1020.31 1020.25 1020.11 1019.71 1019.61 1019.54 1019.41 1019.11 1018.99 1019.10 1019.34 1019.51 1019.69 1019.95
1019.62 1019.90 1020.89 1022.37 1023.28 1022.75 1021.97 1020.62 1018.49 1017.57 1017.71 1017.83 1018.20 1018.49 1018.73 1019.56 1019.88 1020.36 1020.43 1020.74 1020.99 1020.91 1020.78 1020.74 1020.75 1020.50 1020.12 1019.99 1020.10 1020.07 1020.05 1019.98 1019.82 1019.78 1019.85 1019.89 1019.85 1019.67 1019.44 1019.48 1019.44 1019.30 1019.15 1019.08 1019.06 1019.20 1019.41 1019.58 1019.76
1019.46 1019.81 1020.21 1021.62 1023.10 1022.83 1021.82 1020.20 1018.28 1018.27 1018.60 1018.62 1019.05 1019.16 1019.60 1020.10 1020.45 1020.90 1020.87 1020.89 1021.01 1021.12 1021.11 1020.85 1020.78 1020.84 1020.73 1020.51 1020.35 1020.45 1020.21 1020.23 1020.29 1019.93 1019.80 1019.62 1019.49 1019.35 1019.23 1019.31 1019.42 1019.31 1019.33 1019.27 1019.26 1019.41 1019.54 1019.81 1019.97
1018.39 1018.97 1020.31 1021.57 1022.87 1023.09 1022.01 1020.62 1019.70 1018.99 1019.17 1019.50 1019.94 1020.12 1020.17 1020.52 1020.87 1021.06 1021.03 1021.04 1021.18 1021.19 1021.12 1021.01 1020.77 1020.90 1020.78 1020.55 1020.54 1020.46 1020.25 1020.07 1020.11 1019.75 1019.44 1019.61 1019.35 1019.13 1019.10 1019.19 1019.28 1019.36 1019.30 1019.29 1019.36 1019.39 1019.53 1019.73 1019.73
1018.62 1018.71 1019.54 1020.61 1021.73 1022.46 1022.34 1021.74 1020.42 1020.03 1019.66 1019.87 1020.10 1020.16 1020.30 1020.76 1021.09 1021.14 1021.38 1021.89 1021.97 1021.87 1021.62 1021.43 1021.31 1021.08 1020.68 1020.55 1020.49 1020.51 1020.39 1020.19 1020.15 1019.91 1019.79 1019.63 1019.43 1019.13 1018.95 1018.98 1019.03 1019.07 1019.11 1019.16 1019.21 1019.20 1019.27 1019.44 1019.57
1018.31 1018.59 1019.27 1020.56 1021.83 1021.98 1021.68 1021.75 1020.88 1020.67 1020.24 1020.06 1020.62 1020.75 1020.72 1021.09 1021.93 1022.30 1022.59 1022.64 1022.46 1022.34 1021.76 1021.38 1021.02 1020.92 1020.73 1020.53 1020.47 1020.24 1020.08 1019.94 1019.93 1019.98 1019.95 1019.83 1019.51 1019.10 1018.90 1018.78 1018.68 1018.65 1018.72 1018.82 1018.88 1018.96 1018.95 1019.07 1019.25
Wind_Speed
5 4 1 3 5 4 5 4 6 6 6 2 3 10 10 4 4 5 5 14 17 13 11 10 12 13 13 13 12 13 13 13 13 12 12 12 12 13 14 14 14 15 15 15 15 12 13 13 12
3 3 2 2 4 2 6 1 8 5 7 6 9 5 6 3 3 10 9 16 15 13 10 9 11 12 13 11 12 12 12 12 12 11 11 11 12 12 12 13 12 13 13 13 13 12 11 11 10
1 3 2 3 2 3 3 4 7 4 7 5 4 6 4 3 4 5 15 17 15 12 10 9 11 12 12 12 12 11 11 11 10 10 10 10 11 10 10 11 11 11 12 12 11 11 11 10 9
2 5 3 1 2 7 5 8 10 5 4 5 7 7 4 7 8 9 17 17 13 12 12 11 12 12 12 11 12 11 10 10 9 9 9 9 9 8 10 11 11 11 10 9 9 10 9 9 8
2 2 1 2 3 3 4 8 7 6 4 3 6 3 5 2 12 13 16 13 15 11 11 10 12 12 11 10 12 11 10 9 9 9 8 8 7 7 8 10 10 9 9 9 7 7 7 6 6
3 2 1 4 1 3 3 8 9 6 5 7 8 6 3 11 14 9 12 15 14 13 10 8 10 11 9 9 9 11 11 10 9 9 8 7 6 6 6 7 6 6 6 6 6 5 4 3 3
2 1 4 4 2 3 5 8 8 7 7 4 11 6 6 5 7 8 12 14 12 12 9 7 5 7 9 8 7 7 9 9 9 9 9 8 6 4 4 4 3 3 3 4 5 4 3 2 0
1 1 3 4 4 5 6 6 8 11 3 7 9 7 7 10 9 9 13 14 12 11 10 7 6 5 5 6 8 7 7 6 6 6 7 6 6 6 5 4 2 2 3 2 2 2 2 2 3
2 2 3 6 3 4 6 6 3 2 7 5 2 7 12 17 9 8 13 10 11 10 10 8 7 6 5 6 6 6 7 6 6 6 6 5 4 5 6 7 7 6 4 3 3 4 5 5 6
3 3 6 3 2 2 7 7 9 6 5 4 8 12 18 16 10 8 14 10 11 7 10 10 8 7 7 6 6 6 5 4 5 5 6 5 5 4 6 6 7 7 6 6 6 8 8 6 3
3 4 4 2 3 4 5 4 4 11 2 6 15 15 17 12 8 8 9 10 10 10 9 10 10 9 8 6 5 3 3 4 4 7 5 5 4 3 3 2 3 3 6 3 4 4 3 4 4
3 3 2 4 5 7 6 7 6 4 6 12 17 18 9 13 9 9 8 8 9 8 9 10 8 7 8 4 4 4 4 3 3 4 6 3 3 4 4 3 4 4 3 4 4 3 4 6 6
4 6 9 5 3 5 4 6 7 3 2 16 16 15 14 9 8 7 8 8 9 7 7 8 8 8 6 6 5 4 5 4 5 5 6 5 4 4 3 4 4 4 3 4 4 5 4 5 5
3 7 11 3 2 4 5 2 5 3 8 15 16 13 12 12 10 7 8 8 9 9 9 7 8 8 7 5 7 5 5 6 5 4 5 7 5 4 4 4 4 5 5 4 4 4 5 5 5
3 3 3 1 2 3 2 3 4 6 7 14 13 12 11 11 10 10 10 8 10 7 10 10 9 7 8 7 6 5 5 5 4 5 7 7 6 6 6 4 4 5 5 6 4 4 2 3 3
2 2 4 2 5 3 4 5 3 7 11 10 10 9 11 10 11 9 9 9 9 8 9 8 8 9 8 7 6 5 5 5 5 5 5 7 7 7 6 4 5 5 4 5 5 5 4 4 4
4 2 4 4 6 4 2 2 5 7 8 9 9 9 9 8 8 9 9 9 10 10 10 9 9 9 9 8 6 6 7 5 5 5 5 6 7 7 5 5 5 5 4 4 4 4 4 3 4
15 6 3 5 7 8 2 2 0 3 7 9 8 8 9 9 10 8 9 9 9 9 9 8 8 9 8 5 4 3 3 4 4 5 5 6 5 6 5 4 5 5 4 4 4 5 4 4 5
14 5 5 3 5 2 6 5 6 4 2 5 5 7 9 9 9 9 8 9 8 7 8 8 8 8 4 2 3 2 3 2 3 4 6 7 5 5 5 4 4 4 5 5 5 3 5 4 3
9 17 7 3 5 7 9 11 7 5 4 6 5 4 7 5 6 5 6 6 8 8 7 7 6 5 4 2 1 3 3 4 3 3 5 6 6 5 4 5 5 6 4 6 5 5 3 4 5
2 8 5 4 2 3 5 8 4 4 4 4 4 3 1 5 4 2 2 2 1 3 4 4 4 5 4 6 2 1 2 1 1 2 3 3 5 4 5 6 5 6 5 5 5 6 7 4 4
6 7 6 8 4 3 3 4 4 4 7 5 8 4 5 5 6 6 6 8 8 7 7 7 6 4 2 2 3 6 5 5 3 3 3 4 4 4 5 6 6 6 4 5 5 4 4 5 5
3 13 11 7 6 2 2 3 9 8 9 4 7 1 8 7 7 7 7 7 7 8 7 6 7 6 5 3 3 4 4 3 2 2 4 4 4 5 6 6 6 6 4 5 7 5 5 3 4
12 14 13 6 2 1 6 6 5 4 7 3 6 8 7 6 7 7 7 6 5 5 4 3 3 4 6 6 5 6 7 5 3 3 4 4 3 4 6 6 6 6 6 6 5 5 5 5 4
14 6 4 2 1 4 0 5 9 4 4 6 8 7 7 5 7 7 8 8 7 7 7 6 6 5 5 6 5 5 6 6 6 5 4 5 4 4 7 6 6 5 5 5 4 5 5 5 4
10 5 6 6 5 3 2 6 6 2 5 9 8 7 9 8 7 7 8 7 5 5 4 4 4 5 5 5 6 4 5 3 4 5 4 5 5 5 4 6 6 6 5 4 4 3 3 4 5
7 5 6 7 3 4 3 4 9 6 6 8 7 8 9 7 7 7 5 3 2 3 4 4 5 6 7 6 5 6 6 6 6 7 5 4 5 5 6 6 7 6 6 6 5 3 4 4 4
5 7 5 3 4 2 3 1 2 6 9 9 8 8 7 7 7 5 3 1 3 4 5 4 3 5 6 6 5 5 6 6 6 6 6 7 6 5 6 6 6 6 6 6 6 4 4 6 4
2 3 3 5 5 6 4 2 4 2 9 10 7 7 7 6 5 3 7 9 8 8 8 8 7 7 7 5 5 6 7 7 7 6 6 6 6 6 6 6 7 7 7 6 6 6 7 7 6
1 5 5 5 4 1 3 3 2 6 7 8 7 6 5 5 8 10 8 6 7 6 6 6 6 5 6 6 6 7 7 6 6 7 7 6 8 6 7 7 7 7 7 7 8 8 7 8 8
Wind_Direction
353 133 283 45 45 62 305 310 120 86 57 17 86 87 103 64 56 136 115 121 130 137 139 136 134 128 125 120 124 121 113 107 100 93 90 84 82 89 84 80 75 79 82 83 83 81 84 80 75
339 188 349 67 85 10 286 212 87 105 131 87 62 120 54 76 72 106 103 132 132 133 138 135 132 130 130 123 133 122 118 115 107 102 102 97 91 89 91 89 85 82 78 84 85 83 84 83 78
262 188 77 136 178 210 209 103 123 93 90 90 81 58 78 88 90 124 134 128 129 135 138 138 136 135 133 126 118 115 116 115 111 109 105 107 100 91 89 98 90 82 78 73 92 90 88 82 73
43 4 346 165 242 272 147 151 125 112 71 69 112 71 71 178 144 134 136 133 129 133 134 142 142 141 137 134 132 129 125 122 122 116 113 111 102 96 85 102 88 84 84 84 75 99 91 82 71
26 66 309 260 254 313 96 138 118 110 119 96 111 99 72 68 132 130 131 126 121 124 129 138 143 146 145 150 145 136 132 129 124 120 115 115 109 99 104 100 103 97 94 88 90 90 94 84 68
9 95 11 248 19 143 108 144 128 132 139 125 83 100 96 131 133 140 128 118 126 129 130 136 138 139 143 162 151 146 146 147 143 137 131 124 122 117 108 115 111 104 103 100 100 99 100 92 72
94 53 237 269 175 175 176 147 128 131 125 118 148 95 130 138 158 136 131 123 127 129 126 125 133 142 141 138 142 147 163 164 163 162 149 141 137 133 126 119 120 117 116 116 113 116 119 126 113
81 121 279 263 147 249 181 130 130 114 177 114 145 152 177 177 161 136 129 127 128 130 132 140 136 141 140 146 145 134 117 117 135 139 146 154 166 170 167 166 194 171 154 154 156 166 201 230 251
44 46 243 253 147 227 178 125 48 108 104 62 58 150 148 152 153 131 128 133 132 141 151 149 157 163 167 155 155 144 144 141 138 147 162 173 204 206 198 198 204 201 188 207 234 244 249 258 267
142 164 225 86 322 201 180 126 126 102 99 52 62 96 130 148 157 152 143 154 147 152 156 163 171 171 172 172 156 166 170 177 187 187 191 203 200 218 205 198 194 199 210 230 247 252 258 270 264
208 204 318 40 357 291 145 103 90 122 146 170 144 138 143 151 153 148 156 152 158 171 169 166 167 169 175 166 169 175 183 188 200 198 201 211 208 189 182 183 198 202 221 232 248 251 254 256 255
2 289 347 320 348 346 173 137 118 137 198 160 152 149 144 153 161 160 162 159 153 160 161 165 165 168 178 157 175 188 178 202 197 207 210 209 209 198 205 188 196 206 202 223 228 217 227 229 226
23 343 322 311 336 288 218 136 145 116 320 140 139 150 151 154 165 165 164 169 157 165 181 177 172 175 183 167 190 185 200 193 207 196 200 189 197 218 214 202 187 194 202 214 220 214 220 224 242
357 289 279 277 6 325 127 107 98 232 119 126 144 158 157 166 175 164 172 170 164 165 182 185 177 170 172 175 192 195 189 194 192 193 198 194 190 203 212 226 211 193 199 216 231 230 218 211 216
242 330 238 270 54 338 325 40 139 179 140 139 149 159 168 178 182 180 181 181 177 177 176 178 171 182 169 193 193 201 195 186 202 203 201 200 201 205 206 216 226 222 213 226 244 234 229 236 246
24 159 148 33 30 347 64 235 219 188 141 153 163 169 178 191 189 188 184 173 181 176 175 175 185 178 186 185 199 201 204 204 198 209 207 203 200 207 218 215 220 224 213 217 211 219 234 235 225
47 192 162 103 44 310 148 287 191 193 154 161 174 176 179 189 198 192 184 180 173 179 177 183 183 183 193 192 195 202 205 206 210 202 203 218 213 210 204 217 224 219 225 221 230 211 190 224 242
185 197 92 83 356 348 150 131 291 162 164 175 189 183 175 179 201 198 183 181 173 188 186 184 185 187 192 190 189 209 218 226 204 207 208 218 215 212 212 229 237 227 219 236 228 217 207 196 225
173 177 85 87 8 348 32 11 339 267 202 178 173 190 184 184 203 189 188 179 189 200 187 189 184 203 166 164 165 199 217 217 232 217 209 214 211 210 213 233 244 236 230 226 218 204 232 240 219
136 170 193 94 13 30 7 327 279 273 248 210 177 171 181 180 190 196 201 193 188 188 191 194 197 189 193 162 155 157 169 223 220 216 224 210 199 205 224 233 241 233 229 238 227 195 192 194 190
121 176 156 126 104 44 351 299 260 248 216 210 210 168 128 190 183 185 202 231 318 218 211 210 198 180 183 196 162 96 46 32 341 268 241 216 198 203 227 242 241 244 222 227 218 194 177 188 211
158 151 100 96 95 181 359 266 279 287 244 204 210 220 260 14 35 65 55 48 49 34 40 45 24 346 332 166 191 195 201 212 215 212 224 224 216 223 239 243 244 239 223 210 198 185 179 153 188
144 133 116 122 110 119 168 88 278 291 284 255 183 148 70 61 71 57 63 60 36 34 35 29 20 14 339 314 239 213 216 217 228 260 239 199 217 221 230 231 232 224 213 202 187 167 200 189 168
109 98 84 55 56 178 203 178 271 203 202 187 76 109 93 59 61 58 55 52 53 53 56 44 12 332 324 310 274 232 226 243 250 223 215 217 231 243 241 241 238 235 217 197 209 180 206 209 206
141 124 101 78 189 224 30 171 256 259 44 114 125 97 92 80 60 51 45 37 28 20 9 355 1 329 311 309 280 244 246 243 248 241 226 216 228 238 235 225 234 239 236 218 193 190 201 202 204
164 138 140 158 179 196 41 205 247 126 114 103 120 121 92 80 69 62 54 46 25 6 351 338 312 292 298 309 280 280 283 268 257 246 230 230 224 233 219 226 237 241 236 217 196 193 198 199 218
180 152 168 105 46 75 219 264 304 116 89 82 81 74 88 83 81 79 75 64 350 302 298 300 323 320 310 307 304 301 304 297 281 280 270 254 245 239 225 217 224 231 230 220 206 201 199 208 210
138 160 116 11 117 209 261 244 244 336 111 94 81 86 81 86 86 91 76 4 319 328 323 331 321 302 300 306 294 289 286 275 271 278 276 262 261 242 212 213 219 226 229 221 202 200 203 192 196
112 145 82 108 126 151 151 246 273 159 119 108 91 89 101 107 131 91 22 11 5 354 346 333 329 313 317 308 294 293 289 297 299 287 274 267 264 239 225 218 220 223 221 214 207 206 200 199 196
148 164 146 137 218 160 121 229 223 150 140 124 124 129 128 86 49 43 42 30 20 1 4 355 337 316 286 280 278 277 278 281 284 280 283 279 268 252 235 227 224 220 217 213 212 212 204 199 199